Lumberton, NC

6:15 AM EST on December 13, 2017 (GMT -0500)
Lumberton Municipal

Weather History for KLBT - November, 2012

Change the Weather History Date:

Thursday, November 8, 2012

  Actual Average Record
Temperature  
Mean Temperature 46 °F 56 °F  
Max Temperature 63 °F 70 °F 81 °F (2005)
Min Temperature 29 °F 43 °F 29 °F (2007)
Degree Days  
Heating Degree Days 19 9  
Month to date heating degree days 128 67  
Since 1 July heating degree days 254 199  
Cooling Degree Days 0 1  
Month to date cooling degree days 0 8  
Year to date cooling degree days 2053 1902  
Moisture  
Dew Point 28 °F    
Average Humidity 58    
Maximum Humidity 100    
Minimum Humidity 16    
Precipitation  
Precipitation 0.00 in 0.09 in 0.04 in (2006)
Month to date precipitation 0.11 0.67  
Year to date precipitation 39.43 38.43  
Sea Level Pressure  
Sea Level Pressure 30.04 in    
Wind  
Wind Speed 4 mph (WNW)    
Max Wind Speed 15 mph    
Max Gust Speed 23 mph    
Visibility 7 miles    
Events      
T = Trace of Precipitation, MM = Missing Value Source: NWS Daily Summary

Daily Weather History Graph

Daily Weather History Graph

Search for Another Location

Airport or City:

Trip Planner

Search our weather history database for the weather conditions in past years. The results will help you decide how hot, cold, wet, or windy it might be!

Date:

Astronomy

Nov. 08, 2012 Rise Set
Actual Time 6:43 AM EST 5:15 PM EST
Civil Twilight 6:17 AM EST 5:42 PM EST
Nautical Twilight 5:47 AM EST 6:12 PM EST
Astronomical Twilight 5:17 AM EST 6:42 PM EST
Moon 12:51 AM EST (11/8) 1:43 PM EST (11/8)
Length of Visible Light 11h 25m
Length of Day
10h 32m
Waning Crescent, 33% of the Moon is Illuminated
Nov 8
Waning Crescent
Nov 13
New
Nov 20
First Quarter
Nov 28
Full
Dec 6
Last Quarter

Hourly Weather History & Observations

Time (EST) Temp. Windchill Dew Point Humidity Pressure Visibility Wind Dir Wind Speed Gust Speed Precip Events Conditions
12:54 AM 34.0 °F - 33.1 °F 96% 29.96 in 6.0 mi Calm Calm - N/A   Clear
2:54 AM 30.0 °F 25.2 °F 28.9 °F 96% 29.96 in 3.0 mi WSW 4.6 mph - N/A   Clear
3:54 AM 32.0 °F - 30.0 °F 92% 29.98 in 5.0 mi Calm Calm - N/A   Clear
4:54 AM 30.0 °F 26.5 °F 28.0 °F 92% 30.00 in 4.0 mi WSW 3.5 mph - N/A   Clear
5:54 AM 28.9 °F - 28.0 °F 96% 30.01 in 4.0 mi Calm Calm - N/A   Clear
6:47 AM 28.4 °F - 28.4 °F 100% 30.03 in 2.5 mi Calm Calm - N/A   Clear
6:54 AM 28.9 °F - 28.0 °F 96% 30.03 in 2.5 mi Calm Calm - N/A   Clear
7:16 AM 30.2 °F - 28.4 °F 93% 30.04 in 4.0 mi Calm Calm - N/A   Clear
7:54 AM 35.1 °F - 33.1 °F 92% 30.06 in 4.0 mi Calm Calm - N/A   Clear
8:54 AM 43.0 °F 40.3 °F 36.0 °F 76% 30.07 in 7.0 mi NW 4.6 mph - N/A   Clear
9:54 AM 50.0 °F - 34.0 °F 54% 30.08 in 9.0 mi WNW 6.9 mph - N/A   Clear
10:54 AM 55.0 °F - 28.9 °F 37% 30.07 in 10.0 mi NW 9.2 mph - N/A   Clear
11:54 AM 57.9 °F - 24.1 °F 27% 30.04 in 10.0 mi NW 8.1 mph - N/A   Clear
12:54 PM 60.1 °F - 21.9 °F 23% 30.02 in 10.0 mi WNW 13.8 mph - N/A   Clear
1:54 PM 62.1 °F - 21.0 °F 21% 30.02 in 10.0 mi Variable 5.8 mph 18.4 mph N/A   Clear
2:17 PM 62.6 °F - 17.6 °F 18% 30.01 in 5.0 mi NNW 8.1 mph 18.4 mph N/A   Haze
2:54 PM 63.0 °F - 16.0 °F 16% 30.01 in 9.0 mi NW 10.4 mph - N/A   Clear
3:54 PM 63.0 °F - 17.1 °F 17% 30.02 in 10.0 mi NW 10.4 mph - N/A   Clear
4:54 PM 59.0 °F - 23.0 °F 25% 30.03 in 6.0 mi WNW 5.8 mph - N/A   Haze
5:54 PM 45.0 °F 43.5 °F 30.9 °F 58% 30.05 in 10.0 mi SW 3.5 mph - N/A   Clear
6:54 PM 43.0 °F - 32.0 °F 65% 30.07 in 10.0 mi Calm Calm - N/A   Clear
7:54 PM 43.0 °F - 30.9 °F 62% 30.08 in 10.0 mi Calm Calm - N/A   Clear
8:54 PM 39.9 °F - 30.9 °F 70% 30.09 in 10.0 mi Calm Calm - N/A   Clear
9:54 PM 36.0 °F 32.1 °F 30.0 °F 79% 30.11 in 10.0 mi WSW 4.6 mph - N/A   Clear
10:54 PM 36.0 °F - 30.9 °F 82% 30.12 in 10.0 mi Calm Calm - N/A   Clear
11:54 PM 35.1 °F 31.0 °F 30.0 °F 82% 30.12 in 10.0 mi WNW 4.6 mph - N/A   Clear